www.pogodaiklimat.ru

Погода и климат >> Архив погоды >> Перу >> Yurimaguas


ПОГОДА в Yurimaguas

  • Прогноз погоды в Yurimaguas
  • Монитор погоды в Yurimaguas
  • Климат города

АРХИВ ПОГОДЫ в Yurimaguas

Время (UTC), дата Ветер
(напр.,м/с)
 
Видим.   Явления Облачность Т
(С)
Тd
(С)
f
(%)
Тe
(С)
Тes
(С)
Комфортность P
(гПа)
Po
(гПа)
Тmin
(С)
Tmax
(С)
R
(мм)
R24
(мм)
S
(см)
15 17.11 С 2 10 км 10/3 450 м
[Sc Ac trans]
+28.4 +24.6 80 +40 +45 очень
душно
1010.9 990.1
18 17.11 СВ 4 8000 м осадки на расстоянии 10/4 450 м
[Cu med, cong Ac trans]
+29.4 +24.8 76 +42 +45 опасность
перегрева
1010.5 989.7
21 17.11 СЗ 1 10 км {гроза, дождь} 8/3 450 м
[Sc Ac trans]
+25.0 +23.9 94 +34 +37 очень
душно
1011.7 989.9
12 18.11 штиль 0 10 км 9/4 450 м
[Sc Ac trans]
+24.0 +23.2 95 +32 +33 очень
душно
1010.6 988.8 +22.0
15 18.11 СЗ 3 10 км 3/1 450 м
[Sc Ac trans]
+29.2 +23.5 71 +40 +50 очень
душно
1010.3 989.5
18 18.11 С 4 10 км 4/4 450 м
[Sc]
+32.8 +24.8 63 +46 +54 опасность
перегрева
1009.8 989.0
21 18.11 С 2 10 км 3/3 450 м
[Sc]
+33.2 +25.2 63 +47 +51 опасность
перегрева
1008.5 987.5
12 19.11 С 2 10 км 1/1 450 м
[Sc]
+25.4 +23.5 89 +34 +36 очень
душно
1010.7 988.5 +24.2
15 19.11 СЗ 3 10 км 1/1 450 м
[Sc]
+30.6 +24.4 70 +43 +56 опасность
перегрева
1007.9 987.1
18 19.11 С 3 10 км 5/5 600 м
[Sc]
+33.4 +23.4 56 +44 +52 опасность
перегрева
1009.2 988.4
21 19.11 С 3 10 км 6/3 600 м
[Sc Ac trans]
+32.0 +24.8 66 +45 +48 опасность
перегрева
1007.2 986.4
12 20.11 штиль 0 10 км 1/1 400 м
[St]
+25.2 +23.6 91 +34 +36 очень
душно
1010.7 988.9 +23.6
18 20.11 С 2 8000 м осадки на расстоянии 5/5 450 м
[Cb cap]
+33.4 +24.9 61 +47 +56 опасность
перегрева
1010.1 989.3
21 20.11 штиль 0 8000 м осадки на расстоянии {дождь} 10/4 450 м
[Cu med, cong As op]
+29.4 +24.0 73 +41 +42 опасность
перегрева
1008.9 988.1
12 21.11 С 2 10 км 10/5 750 м
[Sc Ac trans]
+24.6 +22.7 89 +32 +33 очень
душно
1012.5 990.7 +23.0 8
15 21.11 С 2 10 км 6/1 750 м
[Sc Ac trans]
+27.2 +22.2 74 +35 +45 очень
душно
1011.9 991.1
18 21.11 штиль 0 10 км 8/1 600 м
[Sc Ac trans]
+31.6 +24.0 64 +43 +56 опасность
перегрева
1010.7 989.9
21 21.11 С 2 10 км 5/1 600 м
[Sc Ac trans]
+33.0 +23.5 58 +44 +48 опасность
перегрева
1009.4 988.4
12 22.11 З 2 10 км 10/5 750 м
[Sc Ac trans]
+25.2 +23.8 92 +34 +35 очень
душно
1011.7 989.9 +23.0
15 22.11 З 2 10 км 9/3 600 м
[Sc Ac trans]
+29.2 +24.0 74 +41 +46 опасность
перегрева
1011.5 990.7
18 22.11 СВ 5 3000 м слабый дождь 10/6 450 м
[Sc As op]
+26.0 +23.2 85 +35 +36 очень
душно
1011.8 991.0 0.0
21 22.11 С 2 10 км {дождь} 10/4 450 м
[Sc Ac trans]
+25.6 +24.0 91 +35 +37 очень
душно
1011.6 990.8
12 23.11 штиль 0 5000 м дымка 6/6 450 м
[Sc]
+24.2 +23.4 95 +32 +33 очень
душно
1012.7 990.9 +22.2 2
15 23.11 С 3 10 км {туман} 8/4 450 м
[Sc Ac trans]
+26.2 +23.5 85 +36 +40 очень
душно
1012.6 991.8
18 23.11 С 3 10 км {туман} 4/4 450 м
[Sc]
+31.2 +23.9 65 +43 +52 опасность
перегрева
1012.9 992.1
21 23.11 С 3 10 км 4/3 450 м
[Sc Ac trans]
+31.4 +23.2 62 +42 +45 опасность
перегрева
1011.5 990.7

 

Местоположение метеостанции Yurimaguas (Перу): широта -5.88 долгота -76.11 высота над уровнем моря 184 м.

В архиве по умолчанию представлена погода в Yurimaguas за последнюю неделю. Архивные данные за месяц целиком и за предыдущие месяцы, начиная с января 2011 года, Вы можете получить, выбрав интересующий диапазон дат из раскрывающегося списка и нажав кнопку "Ввод!".

Внимание! Время в таблицах - всемирное. Для получения местного времени необходимо прибавить поправку, которая в Yurimaguas равна -5 ч.

Смотрите также архив погоды в соседних городах и на ближайших метеорологических станциях:

Погода в Tarapoto (Перу) (74 км)
Погода в Juanjui (Перу) (158 км)
Погода в Chachapoyas (Перу) (196 км)
Погода в Cajamarca (Перу) (295 км)
Погода в Pucallpa (Перу) (326 км)
Погода в Tingo Maria (Перу) (378 км)
Погода в Iquitos (Перу) (389 км)
Погода в Loja (Эквадор) (399 км)
Погода в Trujillo (Перу) (411 км)
Погода в Catamayo (Эквадор) (415 км)

Пояснения к столбцам:

Ветер - указаны скорость ветра в м/с - средняя за 10 мин, порывы в срок и между сроками (в фигурных скобках) и направление, откуда дует ветер: С - северный, СВ - северо-восточный, В - восточный, ЮВ - юго-восточный, Ю - южный, ЮЗ - юго-западный, З - западный, СЗ - северо-западный.
Видимость - горизонтальная дальность видимости в метрах или километрах. При видимости от 1 до 10 км при отсутствии осадков обычно наблюдается дымка, при ухудшении видимости до 1 км и менее - туман. В сухую погоду видимость может ухудшаться дымом, пылью или мглою.
Явления - указаны атмосферные явления, наблюдавшиеся в срок или в последний час перед сроком; фигурными скобками обозначены явления, наблюдавшиеся между сроками (за 1-3 часа до срока); квадратными скобками обозначены град или гололедные отложения с указанием их диаметра в мм.
Облачность - указаны через наклонную черту общая и нижняя облачность в баллах и высота нижней границы облаков в метрах; квадратными скобками обозначены формы облаков: Ci - перистые, Cs - перисто-слоистые, Cc - перисто-кучевые, Ac - высококучевые, As - высокослоистые, Sc - слоисто-кучевые, Ns - слоисто-дождевые, Cu - кучевые, Cb - кучево-дождевые. Подробнее классификацию облаков см. в Атласе облаков (PDF).
T - Температура воздуха - температура, измеренная на высоте 2 м над землей.
Td - Температура точки росы - температура, при понижении до которой содержащийся в воздухе водяной пар достигнет насыщения.
f - Относительная влажность воздуха - влажноcть воздуха, измеренная на высоте 2 м над землей.
Te - Эффективная температура - температура, которую ощущает одетый по сезону человек в тени. Характеристика душности погоды. При расчете учитывается влияние влажности воздуха и скорости ветра на теплоощущения человека.
Tes - Эффективная температура на солнце - температура, которую ощущает человек, с поправкой на солнечный нагрев. Характеристика знойности погоды. Зависит от высоты солнца над горизонтом, облачности и скорости ветра. Ночью, в пасмурную погоду, а также при ветре 12 м/с и более поправка равна нулю.
P - Атмосферное давление - приведенное к уровню моря атмосферное давление.
Po - Атмосферное давление - измеренное на уровне метеостанции атмосферное давление.
Tmin - Минимальная температура - минимум температуры воздуха на высоте 2 м над землей.
Tmax - Максимальная температура - максимум температуры воздуха на высоте 2 м над землей.
R - Количество осадков - Количество выпавших осадков за период времени, мм. При наведении курсора мыши на число - период времени, за который выпало указанное количество осадков.
R24 - Количество осадков - Количество выпавших осадков за 24 часа, мм.
S - Снежный покров - Высота снежного покрова, см. При наведении курсора мыши на число - состояние снежного покрова и степень покрытия местности в баллах.